Regional Weather Roundup
Issued by NWS Upton, NY

Home | Current Version | Previous Version | Text Only | Print | Product List | Glossary On
Versions: 1 2 3 4 5 6 7 8 9 10 11 12 13 14 15 16 17 18 19 20 21 22 23 24 25 26 27 28 29 30 31 32 33 34 35 36 37 38 39 40 41 42 43 44 45 46 47 48 49 50
000
ASUS41 KOKX 281204
RWROKX

REGIONAL WEATHER ROUNDUP
NATIONAL WEATHER SERVICE NEW YORK NY
800 AM EDT FRI AUG 28 2015

NOTE: "FAIR" INDICATES FEW OR NO CLOUDS BELOW 12,000 FEET WITH NO
SIGNIFICANT WEATHER AND/OR OBSTRUCTIONS TO VISIBILITY.

NYZ071-072-176-178-NJZ106-104-281300-
NEW YORK CITY METRO AREA


CITY           SKY/WX    TMP DP  RH WIND       PRES   REMARKS
CENTRAL PARK   SUNNY     65  53  65 CALM      30.20R
LAGUARDIA APRT MOSUNNY   68  56  65 NW7       30.17R
KENNEDY INTL   MOSUNNY   69  57  65 N9        30.18R
NEWARK/LIBERTY MOSUNNY   66  54  65 NE6       30.17R
BRNX BOT. GARD   N/A     66  55  68 NW5       30.20R
TETERBORO      SUNNY     64  54  69 NW3       30.17R
$$

NYZ177-179-078>081-281300-
LONG ISLAND NEW YORK

CITY           SKY/WX    TMP DP  RH WIND       PRES   REMARKS
FARMINGDALE    SUNNY     68  55  63 N7        30.17R
ISLIP          MOSUNNY   68  57  68 VRB7      30.14R
SHIRLEY        SUNNY     68  58  70 NW7       30.16R
WESTHAMPTON    SUNNY     68  59  73 N6        30.16R
MONTAUK POINT    N/A     69  60  73 N5        30.15R
$$

NYZ052-065-067-281300-
HUDSON VALLEY

CITY           SKY/WX    TMP DP  RH WIND       PRES   REMARKS
WHITE PLAINS   SUNNY     63  54  72 NW5       30.17R
NEWBURGH       SUNNY     57  55  94 CALM      30.20R
MONTGOMERY     SUNNY     57  54  89 CALM      30.19R
POUGHKEEPSIE   SUNNY     58  53  84 CALM      30.19R
ALBANY         MOSUNNY   61  54  77 W3        30.19R
$$

NJZ001-105-106-008-010-013-015-019>022-104-281300-
NEW JERSEY

CITY           SKY/WX    TMP DP  RH WIND       PRES   REMARKS
NEWARK/LIBERTY MOSUNNY   66  54  65 NE6       30.17R
TETERBORO      SUNNY     64  54  69 NW3       30.17R
CALDWELL       SUNNY     62  54  74 CALM      30.19R
MORRISTOWN     MOSUNNY   61  59  94 CALM      30.19R
SOMERVILLE     SUNNY     57  53  86 N3        30.17R
SUSSEX         SUNNY     54  51  90 CALM      30.20
ANDOVER          N/A     56  55  97 CALM      30.20R
TRENTON        SUNNY     63  55  75 CALM      30.18R
MILLVILLE      SUNNY     65  58  78 CALM      30.18R
ATLANTIC CITY  SUNNY     63  56  78 N3        30.17R
WRIGHTSTOWN    SUNNY     64  58  81 N7        30.16R
TOMS RIVER     SUNNY     61  55  82 N6        30.18R
BELMAR         SUNNY     61  52  72 NW6       30.17S
$$

PAZ047>061-062-071-281300-
EASTERN PENNSYLVANIA

CITY           SKY/WX    TMP DP  RH WIND       PRES   REMARKS
PHILADELPHIA   MOSUNNY   68  55  63 VRB5      30.19R
ALLENTOWN      SUNNY     59  55  87 CALM      30.20R
SCRANTON       SUNNY     57  51  80 E3        30.21R
$$

CTZ002-004>006-009-010-012-RIZ004-006-007-MAZ004-011-015-281300-
SOUTHERN NEW ENGLAND
 IN CT

CITY           SKY/WX    TMP DP  RH WIND       PRES   REMARKS
BRADLEY INTL   MOSUNNY   61  55  81 N5        30.15R
HARTFORD       SUNNY     63  56  78 NE5       30.16R
DANBURY        SUNNY     61  54  77 CALM      30.19R
WTRBRY/OXFORD  SUNNY     59  50  72 N7        30.19R
BRIDGEPORT     SUNNY     66  55  67 N9        30.16R
MERIDEN        SUNNY     63  56  78 CALM      30.16R
NEW HAVEN      SUNNY     63  55  75 N7        30.16R
CHESTER        NOT AVBL
GROTON         SUNNY     65  58  78 N9        30.14R
WILLIMANTIC    MOSUNNY   59  55  87 CALM      30.16R

 IN RI

CITY           SKY/WX    TMP DP  RH WIND       PRES   REMARKS
PROVIDENCE     MOSUNNY   66  55  67 N5        30.14R
BLOCK ISLAND   SUNNY     66  61  82 NE6       30.14R
WESTERLY       SUNNY     65  57  75 N3        30.14R

 IN MA

CITY           SKY/WX    TMP DP  RH WIND       PRES   REMARKS
BOSTON         MOSUNNY   66  54  65 NW8       30.14R
WORCESTER      SUNNY     61  52  72 NW8       30.16R
WESTFIELD      SUNNY     61  56  83 N6        30.17R
PROVINCETOWN   SUNNY     66  57  72 N6        30.13S
NANTUCKET      SUNNY     72  61  68 N10       30.12R
$$

ANZ330-335-338-340-345-350-353-355-281300-
COASTAL MARINE OBSERVATIONS


STATION/POSITION TIME  SKY/WX   TEMP    WIND        PRES    VSBY  WAVE
                                AIR SEA DIR/SP/G                  HT/PER
                 (UTC)          (F)     (DEG/KT/KT) (MB)    (MI)  (FT/S)
NY HARB ENTRANCE 1150            69 75  360/  8/ 10 1021.0          2/10
4S FIRE IS       NOT AVBL
20S FIRE ISLAND  1050            70 74  360/ 10/ 12 1020.2          3/ 9
GREAT SOUTH BAY  1100            63 77   10/  2/  2   N/A
23SW MTP         1150            68 73   10/  8/ 10 1020.0          3/ 9
HUDSON CANYON    NOT AVBL
KINGS POINT      1100            66 72   10/  5/  8 1020.5
EXECUTION ROCKS  1100            65     340/  4/  8   N/A
CENTRAL LI SOUND NOT AVBL
EASTERN LI SOUND 1100            67 71  360/ 14/ 16   N/A
ROBBINS REEF     1100            64     320/  6/  7 1020.3
$$


>>>>>>>>>>>>>>>>>>>>>>>>>>>> KEY <<<<<<<<<<<<<<<<<<<<<<<<<<<
>                                                          <
>     SKY/WX - SKY CONDITION/PRESENT WEATHER               <
>     TMP    - TEMPERATURE IN FAHRENHEIT                   <
>     DP     - DEWPOINT IN FAHRENHEIT                      <
>     RH     - RELATIVE HUMIDITY IN PERCENT                <
>     WIND   - DIRECTION AND SPEED IN MPH                  <
>     PRES   - MEAN SEA LEVEL PRESSURE IN INCHES OF HG     <
>     WCI    - WIND CHILL INDEX                            <
>     VSB    - VISIBILITY IN MILES                         <
>     HX     - HEAT INDEX                                  <
>     TC     - TEMPERATURE IN CELSIUS                      <
>     VRB    - VARIABLE WIND DIRECTION                     <
>                                                          <
>>>>>>>>>>>>>>>>>>>>>>>>>>>> KEY <<<<<<<<<<<<<<<<<<<<<<<<<<<





USA.gov is the U.S. government's official web portal to all federal, state and local government web resources and services.